Guymon, OK

7:43 PM CDT on September 26, 2016 (GMT -0500)
Guymon Municipal

Weather History for KGUY - July, 2014

Change the Weather History Date:

Wednesday, July 2, 2014

  Actual Average Record
Temperature  
Mean Temperature 70 °F 78 °F  
Max Temperature 77 °F 93 °F 101 °F (2008)
Min Temperature 62 °F 64 °F 54 °F (2013)
Degree Days  
Heating Degree Days 0 0  
Month to date heating degree days 0 0  
Since 1 June heating degree days 5 8  
Since 1 July heating degree days 0 0  
Cooling Degree Days 5 13  
Month to date cooling degree days 15 26  
Year to date cooling degree days 542 414  
Since 1 June cooling degree days 364 306  
Growing Degree Days 19 (Base 50)    
Moisture  
Dew Point 58 °F    
Average Humidity 70    
Maximum Humidity 93    
Minimum Humidity 46    
Precipitation  
Precipitation 0.07 in 0.08 in 0.59 in (2008)
Month to date precipitation 0.08 0.16  
Year to date precipitation 5.81 9.35  
Snow  
Snow 0.00 in - - ()
Month to date snowfall 0.0  
Since 1 June snowfall 0.0  
Since 1 July snowfall 0.0  
Snow Depth 0.00 in    
Sea Level Pressure  
Sea Level Pressure 30.09 in    
Wind  
Wind Speed 9 mph (East)    
Max Wind Speed 16 mph    
Max Gust Speed 21 mph    
Visibility 10 miles    
Events Rain    
T = Trace of Precipitation, MM = Missing Value Source: NWS Daily Summary

Daily Weather History Graph

Daily Weather History Graph

Search for Another Location

Airport or City:

Trip Planner

Search our weather history database for the weather conditions in past years. The results will help you decide how hot, cold, wet, or windy it might be!

Date:

Astronomy

Jul. 02, 2014 Rise Set
Actual Time 6:31 AM CDT 9:08 PM CDT
Civil Twilight 6:01 AM CDT 9:39 PM CDT
Nautical Twilight 5:23 AM CDT 10:16 PM CDT
Astronomical Twilight 4:40 AM CDT 10:59 PM CDT
Moon 11:28 AM CDT (7/2) No Moon Set
Length of Visible Light 15h 38m
Length of Day
14h 37m
Waxing Crescent, 24% of the Moon is Illuminated
Jul 2
Waxing Crescent
Jul 5
First Quarter
Jul 12
Full
Jul 18
Last Quarter
Jul 26
New

Hourly Weather History & Observations

Time (CDT) Temp. Dew Point Humidity Pressure Visibility Wind Dir Wind Speed Gust Speed Precip Events Conditions
12:53 AM 66.0 °F 62.1 °F 87% 30.02 in 10.0 mi South 4.6 mph - N/A   Clear
1:53 AM 66.0 °F 62.1 °F 87% 30.02 in 10.0 mi South 4.6 mph - N/A   Clear
2:53 AM 64.9 °F 62.1 °F 90% 30.02 in 10.0 mi Calm Calm - N/A   Clear
3:53 AM 64.0 °F 62.1 °F 93% 30.03 in 10.0 mi North 8.1 mph - N/A   Clear
4:53 AM 64.9 °F 60.1 °F 84% 30.04 in 10.0 mi North 8.1 mph - N/A   Overcast
5:53 AM 63.0 °F 59.0 °F 87% 30.05 in 10.0 mi ENE 9.2 mph - 0.07 in Rain Light Rain
6:53 AM 63.0 °F 57.9 °F 84% 30.07 in 10.0 mi ESE 9.2 mph - 0.00 in Rain Light Rain
7:53 AM 63.0 °F 59.0 °F 87% 30.11 in 10.0 mi East 8.1 mph - 0.00 in   Scattered Clouds
8:53 AM 64.0 °F 59.0 °F 84% 30.13 in 10.0 mi East 6.9 mph - N/A   Clear
9:53 AM 66.0 °F 60.1 °F 81% 30.14 in 10.0 mi NE 10.4 mph - N/A   Clear
10:53 AM 66.9 °F 59.0 °F 76% 30.14 in 10.0 mi NE 12.7 mph - N/A   Clear
11:53 AM 70.0 °F 57.9 °F 65% 30.15 in 10.0 mi East 9.2 mph - N/A   Clear
12:53 PM 72.0 °F 55.9 °F 57% 30.16 in 10.0 mi East 12.7 mph - N/A   Partly Cloudy
1:53 PM 73.9 °F 57.0 °F 55% 30.15 in 10.0 mi ESE 11.5 mph - N/A   Scattered Clouds
2:53 PM 73.9 °F 57.0 °F 55% 30.13 in 10.0 mi ESE 12.7 mph - N/A   Mostly Cloudy
4:53 PM 75.9 °F 55.0 °F 48% 30.09 in 10.0 mi East 11.5 mph - N/A   Mostly Cloudy
5:53 PM 75.9 °F 55.0 °F 48% 30.07 in 10.0 mi ESE 9.2 mph - N/A   Clear
6:53 PM 75.0 °F 54.0 °F 48% 30.08 in 10.0 mi ESE 15.0 mph - N/A   Partly Cloudy
7:53 PM 73.0 °F 54.0 °F 51% 30.08 in 10.0 mi ESE 12.7 mph - N/A   Partly Cloudy
8:53 PM 70.0 °F 55.0 °F 59% 30.10 in 10.0 mi SE 8.1 mph - N/A   Clear
9:53 PM 68.0 °F 55.9 °F 65% 30.11 in 10.0 mi SE 8.1 mph - N/A   Clear
10:53 PM 66.0 °F 55.9 °F 70% 30.14 in 10.0 mi SE 6.9 mph - N/A   Mostly Cloudy
11:53 PM 64.0 °F 57.0 °F 78% 30.15 in 10.0 mi SE 8.1 mph - N/A   Clear